Location: Newark
(43.0000°N, 1.6781°W)
Time: 10:10:17
(UTC+00:00)

Explorer 7 - Pass Details

Date: 20 April 2021
Orbit: 484 x 677 km, 50.3° (Epoch: 07 May)

Event Time Altitude Azimuth Distance (km) Brightness Sun altitude
Rises 01:29:54 0° 300° (WNW) 2,842 - -32.2°
Reaches altitude 10° 01:32:08 10° 301° (WNW) 1,968 - -32.0°
Maximum altitude 01:36:41 83° 29° (NNE) 645 - -31.6°
Drops below altitude 10° 01:41:28 10° 118° (ESE) 2,064 - -31.2°
Sets 01:43:52 0° 119° (ESE) 2,992 - -31.0°
